User: anonymous   Login
Location: Twentynine Palms Airport
(34.1316°N, 115.9458°W)
Time: 20:35:55
(UTC-07:00)
Language:

Oscar 19 - Orbit

View from above orbital plane
View from above orbital plane
View from above satellite
View from above satellite

Ground track
Ground track

The orbit data is extracted from the following two-line orbital elements,

1 20442U 90005G   15145.08769744  .00000075  00000-0  43557-4 0  9997
2 20442 098.5105 081.2501 0011042 212.1616 147.8896 14.32734723323632
Epoch (UTC): 25 May 2015 02:06:17
Eccentricity: 0.0011042
inclination: 98.5105°
perigee height: 775 km
apogee height: 790 km
right ascension of ascending node: 81.2501°
argument of perigee: 212.1616°
revolutions per day: 14.32734723
mean anomaly at epoch: 147.8896°
orbit number at epoch: 32363

The dashed part of the orbit path shows where the satellite is in the earth's shadow,  

DLR